Snowfall_Accumulation
0.0 0.0 0.0 0.0 0.0 0.0 0.0 0.0 0.0 0.0 0.0 0.0 0.0 0.0 0.0 0.0 0.0 0.0 0.0 0.0 0.0 0.0 0.0 0.0 0.0 0.0 0.0 0.0 0.0 0.0 0.0 0.0 0.0 0.0 0.0 0.0 0.0 0.0 0.0 0.0 0.0 0.0 0.0
0.0 0.0 0.0 0.0 0.0 0.0 0.0 0.0 0.0 0.0 0.0 0.0 0.0 0.0 0.0 0.0 0.0 0.0 0.0 0.0 0.0 0.0 0.0 0.0 0.0 0.0 0.0 0.0 0.0 0.0 0.0 0.0 0.0 0.0 0.0 0.0 0.0 0.0 0.0 0.0 0.0 0.0 0.0
0.0 0.0 0.0 0.0 0.0 0.0 0.0 0.0 0.0 0.0 0.0 0.0 0.0 0.0 0.0 0.0 0.0 0.0 0.0 0.0 0.0 0.0 0.0 0.0 0.0 0.0 0.0 0.0 0.0 0.0 0.0 0.0 0.0 0.0 0.0 0.0 0.0 0.0 0.0 0.1 0.0 0.0 0.0
0.0 0.0 0.0 0.0 0.0 0.0 0.0 0.0 0.0 0.0 0.0 0.0 0.0 0.0 0.0 0.0 0.0 0.0 0.0 0.0 0.0 0.0 0.0 0.0 0.0 0.0 0.0 0.0 0.0 0.0 0.0 0.0 0.0 0.0 0.1 0.1 0.2 0.4 0.3 0.5 1.1 0.8 0.8
0.0 0.0 0.0 0.0 0.0 0.0 0.0 0.0 0.0 0.0 0.0 0.0 0.0 0.0 0.0 0.0 0.0 0.0 0.0 0.0 0.0 0.0 0.0 0.0 0.0 0.0 nan nan 0.0 0.0 0.0 0.0 0.2 0.2 0.2 0.3 0.7 1.6 1.1 0.9 1.5 2.1 2.3
0.1 0.0 0.0 0.0 0.0 0.0 0.0 0.0 0.0 0.0 0.0 0.0 0.0 0.0 0.0 0.0 nan nan 0.0 0.0 0.0 0.0 0.0 0.0 0.0 0.0 0.0 nan nan nan nan 0.0 0.0 0.3 0.3 0.2 0.1 0.5 0.9 1.9 2.0 5.5 5.5
0.0 0.2 0.1 0.4 0.2 0.1 0.1 0.0 0.0 0.1 0.1 0.1 0.0 0.0 0.0 0.0 nan nan nan 0.0 0.0 0.0 0.0 0.0 0.0 0.0 0.0 0.0 nan nan nan nan nan 0.0 0.0 0.1 0.1 0.1 0.2 2.3 1.7 1.9 1.9
0.0 0.0 0.0 0.0 0.5 0.6 1.0 0.1 0.1 0.1 0.2 0.1 0.1 0.0 0.0 0.0 nan nan nan 0.0 0.0 0.0 0.0 0.0 0.0 0.0 0.0 0.0 0.0 0.0 0.0 0.0 0.0 0.0 0.0 0.0 0.0 0.0 0.0 0.0 0.2 1.6 3.6
0.1 0.1 0.1 0.1 0.2 0.1 0.1 0.1 0.1 0.1 0.0 0.0 0.1 0.0 0.1 0.0 nan nan 0.0 0.0 0.0 0.0 0.0 0.0 0.0 0.0 nan nan 0.1 0.2 0.6 0.1 nan nan nan nan nan nan nan 1.1 7.4 9.5 8.2
0.2 0.1 0.1 0.1 0.1 0.1 0.1 0.2 0.2 0.1 0.1 0.5 0.1 0.1 0.0 0.1 nan nan nan 0.4 0.1 0.5 0.1 0.0 0.5 0.0 nan nan 0.1 0.5 2.9 0.9 0.8 1.2 0.4 0.1 nan nan nan 0.0 1.3 7.5 7.4
0.4 0.3 0.3 0.2 0.2 0.1 0.1 0.1 0.2 0.2 0.2 0.5 0.8 0.3 0.3 0.1 0.1 nan nan 0.2 0.6 1.1 1.2 1.2 0.7 nan nan nan nan 0.4 1.0 0.8 2.3 2.4 2.5 2.3 1.8 1.5 1.6 0.9 0.4 1.5 7.2
1.0 1.1 1.1 1.1 0.5 0.3 1.0 0.7 1.3 0.8 1.2 1.2 1.3 1.2 1.3 0.4 nan nan nan nan nan 1.9 1.2 1.3 0.9 nan nan nan 0.5 nan nan 1.8 4.4 5.9 6.6 6.3 5.6 6.2 5.4 4.1 2.1 1.9 2.7
3.1 3.9 3.1 2.7 2.0 1.5 1.7 1.6 2.4 1.6 2.3 1.4 2.3 2.1 1.6 1.7 1.2 nan nan nan nan 1.6 1.2 1.2 nan nan nan nan nan nan 1.8 4.6 6.4 10.9 8.6 6.3 5.8 6.9 6.0 7.0 5.3 5.8 5.3
4.9 3.5 2.5 2.8 2.0 2.0 1.9 1.8 2.6 2.7 2.6 3.0 3.5 3.4 2.4 2.7 2.1 1.7 1.7 1.0 1.7 1.9 nan 1.5 nan 1.6 nan nan 2.7 3.5 5.9 6.6 8.5 9.5 9.1 7.3 6.6 9.4 11.2 8.2 10.6 10.7 14.3
4.8 3.6 2.9 2.9 2.7 2.2 2.0 2.2 2.4 1.2 2.4 4.9 5.7 4.0 6.2 6.8 4.7 1.6 3.3 4.6 3.8 3.9 4.7 7.1 8.2 7.5 8.5 8.2 9.8 9.7 9.8 10.8 12.4 11.2 13.3 13.0 13.1 12.8 13.5 11.8 12.7 15.2 15.3
3.3 4.0 2.7 2.9 2.5 2.5 3.0 3.3 nan nan nan nan nan 4.1 5.7 nan nan nan nan nan nan nan 14.7 19.5 13.7 13.0 12.3 12.7 14.4 14.2 13.8 11.7 13.2 14.3 15.4 14.9 15.7 15.1 15.5 16.6 15.8 17.5 19.3
5.4 3.7 4.2 4.0 4.3 5.5 6.7 6.2 7.4 5.4 nan nan nan nan nan nan nan nan nan nan nan nan 24.8 19.0 18.9 15.9 16.0 14.9 15.9 15.6 15.6 14.1 13.1 15.8 15.1 16.1 16.9 18.2 18.2 18.0 16.1 15.6 19.4
7.7 3.1 6.3 6.4 6.2 7.9 8.5 8.8 8.8 9.1 10.5 9.4 nan nan nan nan nan nan nan nan 25.4 nan 20.3 24.2 23.2 19.4 17.7 18.2 17.0 17.1 16.8 16.5 15.5 16.0 16.5 19.4 21.0 21.9 21.2 19.8 17.7 20.2 19.2
9.1 7.3 8.6 8.2 8.9 9.1 9.8 9.3 9.5 10.0 10.5 12.0 12.4 13.7 7.4 nan nan nan nan 17.5 26.1 25.0 25.1 25.4 22.4 22.4 20.8 21.1 20.3 20.9 19.0 19.6 19.2 21.9 21.6 22.5 21.4 21.8 21.8 18.0 16.3 10.6 11.5
11.4 5.5 8.5 12.0 11.5 11.1 9.5 11.6 11.3 11.6 12.8 14.2 15.2 14.9 19.3 16.7 22.9 23.7 21.2 24.5 24.7 24.3 22.4 24.0 23.0 25.1 26.1 24.6 24.4 23.3 23.2 23.5 21.8 22.4 22.4 21.4 20.5 21.3 17.5 20.5 19.3 17.7 18.6
13.7 13.2 4.7 13.6 15.2 15.9 16.6 15.9 14.8 17.1 16.3 16.6 14.6 13.9 nan 18.7 19.7 20.9 22.9 22.8 25.8 26.2 22.0 24.1 25.8 27.3 29.7 31.3 28.0 27.1 26.1 20.0 22.5 23.7 24.2 24.0 23.7 26.8 19.3 15.2 18.2 19.2 18.9
13.9 15.1 18.3 19.5 15.7 16.3 17.8 13.8 15.1 15.3 15.3 14.8 13.1 13.6 nan 17.5 17.1 17.5 17.9 20.5 22.3 22.1 23.7 26.8 27.1 29.9 28.1 26.9 25.9 24.5 22.0 24.0 25.1 24.6 21.8 22.1 24.1 21.9 21.4 17.0 17.3 16.1 19.0
13.3 12.7 14.1 15.2 15.0 7.8 18.9 20.0 19.1 18.1 16.2 16.9 15.2 16.3 18.1 21.5 19.7 19.1 22.1 22.3 18.9 18.1 18.7 19.5 18.8 19.5 18.4 21.6 19.9 19.6 21.0 22.5 22.8 27.5 21.8 21.9 21.7 23.3 21.5 19.9 18.3 19.8 18.8
15.4 15.4 15.1 17.5 17.0 17.3 19.7 20.9 19.5 7.6 19.0 18.7 22.3 19.8 13.7 16.5 19.4 17.2 17.5 17.7 15.0 22.0 17.0 18.5 15.9 15.9 17.3 23.9 28.1 27.6 29.0 29.9 29.5 27.8 25.9 20.5 20.0 16.8 18.5 20.2 16.7 16.0 14.7
16.7 16.2 16.7 16.4 20.3 18.2 17.9 20.0 15.7 18.7 20.6 16.8 18.7 14.4 14.5 13.7 15.0 17.8 16.5 14.9 17.2 16.0 14.1 14.1 13.8 13.8 14.5 15.8 20.3 23.2 23.2 5.0 17.0 5.4 24.6 19.1 21.4 21.4 21.4 19.1 17.5 15.8 14.3
14.1 14.7 15.5 16.0 15.9 16.7 16.8 16.1 16.2 13.7 16.2 17.1 16.3 15.9 13.9 14.2 13.3 15.3 15.5 15.9 13.8 13.9 14.2 14.8 14.5 13.2 12.9 14.2 15.1 7.0 4.8 4.3 20.9 4.7 23.0 20.1 21.4 20.3 20.4 20.7 19.9 19.3 16.4
Water_Equivalent
0.00 0.00 0.00 0.00 0.00 0.00 0.00 0.00 0.00 0.00 0.00 0.00 0.00 0.00 0.00 0.00 0.00 0.00 0.00 0.00 0.00 0.00 0.00 0.00 0.00 0.00 0.00 0.00 0.00 0.00 0.00 0.00 0.00 0.00 0.00 0.00 0.00 0.00 0.00 0.00 0.00 0.00 0.00
0.00 0.00 0.00 0.00 0.00 0.00 0.00 0.00 0.00 0.00 0.00 0.00 0.00 0.00 0.00 0.00 0.00 0.00 0.00 0.00 0.00 0.00 0.00 0.00 0.00 0.00 0.00 0.00 0.00 0.00 0.00 0.00 0.00 0.00 0.01 0.00 0.00 0.00 0.00 0.00 0.00 0.00 0.00
0.00 0.00 0.00 0.00 0.00 0.00 0.00 0.00 0.00 0.00 0.00 0.00 0.00 0.00 0.00 0.00 0.00 0.00 0.00 0.00 0.00 0.00 0.00 0.00 0.00 0.00 0.00 0.00 0.00 0.00 0.00 0.00 0.00 0.00 0.00 0.00 0.02 0.00 0.01 0.02 0.00 0.01 0.00
0.00 0.00 0.00 0.00 0.00 0.00 0.00 0.00 0.00 0.00 0.00 0.00 0.00 0.00 0.00 0.00 0.00 0.00 0.00 0.00 0.00 0.00 0.00 0.00 0.00 0.00 0.00 0.00 0.00 0.00 0.00 0.00 0.00 0.01 0.04 0.05 0.08 0.17 0.10 0.18 0.32 0.25 0.27
0.00 0.00 0.00 0.00 0.00 0.00 0.00 0.00 0.00 0.00 0.00 0.00 0.00 0.00 0.00 0.00 0.00 0.00 0.00 0.00 0.00 0.00 0.00 0.00 0.00 0.00 nan nan 0.00 0.00 0.00 0.01 0.06 0.08 0.10 0.13 0.22 0.40 0.34 0.30 0.47 0.60 0.69
0.02 0.00 0.00 0.00 0.00 0.00 0.00 0.00 0.00 0.00 0.00 0.00 0.00 0.00 0.00 0.00 nan nan 0.00 0.00 0.00 0.00 0.00 0.00 0.00 0.00 0.00 nan nan nan nan 0.00 0.01 0.13 0.11 0.08 0.02 0.18 0.31 0.56 0.65 1.40 1.33
0.00 0.08 0.05 0.16 0.07 0.02 0.03 0.00 0.02 0.03 0.03 0.02 0.00 0.00 0.00 0.00 nan nan nan 0.00 0.00 0.00 0.00 0.00 0.00 0.00 0.02 0.00 nan nan nan nan nan 0.00 0.01 0.04 0.04 0.02 0.05 0.69 0.54 0.61 0.57
0.00 0.01 0.02 0.01 0.20 0.25 0.42 0.03 0.02 0.03 0.06 0.05 0.04 0.01 0.00 0.00 nan nan nan 0.00 0.00 0.00 0.00 0.00 0.00 0.01 0.00 0.01 0.01 0.01 0.02 0.01 0.01 0.00 0.01 0.01 0.01 0.00 0.00 0.02 0.07 0.44 0.86
0.04 0.03 0.03 0.04 0.05 0.03 0.03 0.03 0.02 0.02 0.02 0.01 0.02 0.02 0.03 0.01 nan nan 0.00 0.00 0.00 0.01 0.01 0.00 0.00 0.01 nan nan 0.02 0.07 0.23 0.05 nan nan nan nan nan nan nan 0.41 2.23 2.61 1.75
0.05 0.04 0.03 0.02 0.03 0.04 0.04 0.06 0.05 0.04 0.05 0.20 0.04 0.04 0.01 0.03 nan nan nan 0.17 0.03 0.19 0.02 0.02 0.16 0.01 nan nan 0.03 0.20 0.87 0.26 0.28 0.48 0.14 0.03 nan nan nan 0.02 0.45 2.10 1.54
0.08 0.07 0.07 0.04 0.06 0.03 0.04 0.04 0.06 0.08 0.06 0.15 0.23 0.11 0.11 0.03 0.02 nan nan 0.08 0.25 0.45 0.46 0.43 0.28 nan nan nan nan 0.17 0.33 0.25 0.83 0.81 0.77 0.75 0.56 0.44 0.49 0.29 0.12 0.47 1.51
0.18 0.21 0.23 0.28 0.13 0.09 0.34 0.21 0.42 0.26 0.35 0.35 0.38 0.34 0.38 0.12 nan nan nan nan nan 0.74 0.43 0.45 0.33 nan nan nan 0.20 nan nan 0.60 1.40 1.72 1.56 1.36 1.15 1.16 1.05 0.81 0.44 0.43 0.53
0.52 0.74 0.68 0.59 0.51 0.45 0.58 0.45 0.71 0.50 0.68 0.35 0.61 0.55 0.42 0.42 0.40 nan nan nan nan 0.58 0.44 0.40 nan nan nan nan nan nan 0.59 1.22 1.57 2.05 1.52 1.07 1.01 1.11 0.91 1.01 0.78 0.89 0.83
0.94 0.55 0.42 0.53 0.42 0.45 0.55 0.57 0.84 0.80 0.71 0.79 0.88 0.81 0.56 0.59 0.55 0.50 0.61 0.39 0.58 0.68 nan 0.55 nan 0.51 nan nan 0.77 0.84 1.18 1.33 1.48 1.56 1.39 1.06 1.05 1.45 1.60 1.24 1.51 1.51 2.04
0.70 0.40 0.46 0.60 0.61 0.39 0.35 0.60 0.61 0.30 0.71 1.38 1.62 1.12 1.45 1.48 1.10 0.48 1.02 1.37 1.27 1.29 1.44 1.90 1.72 1.34 1.37 1.33 1.63 1.57 1.55 1.69 1.85 1.79 1.91 1.75 1.74 1.75 1.76 1.62 1.72 2.04 2.16
0.41 0.58 0.50 0.52 0.47 0.45 0.53 0.60 nan nan nan nan nan 1.12 1.50 nan nan nan nan nan nan nan 3.14 3.25 1.95 1.81 1.63 1.66 1.88 1.81 1.79 1.70 1.80 1.97 2.10 2.02 2.07 1.92 1.92 2.11 2.04 2.22 2.33
0.78 0.50 0.62 0.60 0.64 0.79 0.93 1.03 1.13 0.99 nan nan nan nan nan nan nan nan nan nan nan nan 4.81 2.96 2.65 2.10 2.05 1.86 2.00 1.96 1.87 1.73 1.55 1.99 1.89 2.02 2.13 2.30 2.34 2.23 1.96 1.87 2.42
0.91 1.01 0.95 0.93 0.93 1.06 1.15 1.22 1.24 1.34 1.51 1.35 nan nan nan nan nan nan nan nan 4.47 nan 3.74 3.88 3.41 2.90 2.46 2.27 2.03 1.96 1.91 1.91 1.80 1.88 1.97 2.47 2.76 2.94 2.75 2.56 2.19 2.57 2.39
1.12 0.99 1.13 1.16 1.22 1.25 1.34 1.23 1.26 1.29 1.38 1.63 1.68 1.95 1.61 nan nan nan nan 3.21 4.06 3.60 3.57 3.65 3.09 2.91 2.53 2.60 2.48 2.66 2.25 2.32 2.25 2.81 2.78 3.01 2.83 2.94 2.89 2.23 1.90 1.72 1.80
1.38 1.47 1.37 1.62 1.48 1.40 1.17 1.40 1.35 1.38 1.54 1.79 1.94 1.94 2.78 2.76 3.65 3.79 3.19 4.05 3.83 3.47 3.12 3.31 3.35 3.67 3.67 3.37 3.30 3.07 3.03 3.05 2.72 2.86 2.86 2.73 2.60 2.80 2.01 2.66 2.40 2.03 2.24
1.83 1.67 1.56 1.65 1.97 2.06 2.14 1.87 1.68 2.04 1.93 2.09 1.83 1.88 nan 2.45 2.61 2.82 3.27 3.13 3.54 3.76 3.11 3.39 3.51 4.35 4.48 4.88 4.06 3.85 3.54 2.31 2.81 3.06 3.25 3.19 3.11 3.77 2.37 1.62 2.23 2.43 2.36
1.88 2.06 2.18 2.30 1.81 1.93 2.14 1.62 1.77 1.75 1.65 1.54 1.41 1.61 nan 1.85 2.01 2.09 2.21 2.87 3.35 3.31 3.72 4.33 4.22 4.62 4.15 3.86 3.50 3.25 2.70 3.15 3.43 3.22 2.62 2.71 3.17 2.77 2.75 1.93 2.02 1.79 2.38
1.58 1.41 1.56 1.63 1.62 1.72 2.01 2.28 2.05 1.98 1.82 1.94 1.74 1.75 1.95 2.47 2.08 1.95 2.83 3.09 2.46 2.30 2.58 2.75 2.58 2.53 2.35 2.75 2.44 2.38 2.56 2.86 2.97 4.01 2.68 2.76 2.67 3.10 2.81 2.51 2.22 2.47 2.34
1.59 1.63 1.57 1.95 1.80 1.73 2.10 2.26 2.00 1.81 2.03 2.03 2.95 2.41 1.43 1.80 2.52 1.86 1.91 2.28 1.84 3.25 2.26 2.46 2.00 1.96 2.18 3.41 4.39 4.31 4.68 4.93 4.71 4.27 3.80 2.52 2.45 2.17 2.16 2.56 2.00 1.96 1.63
1.74 1.60 1.69 1.63 2.35 1.94 1.86 2.21 1.54 2.06 2.38 1.82 2.23 1.57 1.59 1.48 1.66 2.38 2.18 1.74 1.99 1.83 1.54 1.55 1.63 1.69 1.76 1.90 2.70 3.51 3.76 1.64 2.85 1.77 3.39 2.28 2.73 2.73 2.64 2.27 2.08 1.76 1.57
1.36 1.45 1.55 1.62 1.59 1.74 1.80 1.71 1.75 1.36 1.77 1.92 1.79 1.83 1.55 1.55 1.54 1.90 1.76 1.78 1.44 1.48 1.56 1.69 1.66 1.47 1.41 1.62 1.75 1.85 1.58 1.43 3.07 1.56 2.90 2.33 2.58 2.33 2.29 2.35 2.19 2.12 1.74
SL_Ratio
nan nan nan nan nan nan nan nan nan nan nan nan nan nan nan nan nan nan nan nan nan nan nan nan nan nan nan nan nan nan nan nan nan nan 0.0 nan nan nan nan nan nan nan nan
nan nan nan nan nan nan nan nan nan nan nan nan nan nan nan nan nan nan nan nan nan nan nan nan nan nan nan nan nan nan nan nan nan nan 2.6 2.0 nan nan nan nan nan nan nan
nan nan nan nan nan nan nan nan nan nan nan nan nan nan nan nan nan nan nan nan nan nan nan nan nan nan nan nan nan nan nan nan nan nan 0.0 2.1 2.5 2.9 2.7 2.6 nan 2.4 nan
nan nan nan nan nan nan nan nan nan nan nan nan nan nan nan nan nan nan nan nan nan nan nan nan nan nan nan nan nan nan nan nan nan 2.5 2.5 2.5 2.5 2.5 2.5 2.7 3.5 3.0 2.9
nan nan nan nan nan nan nan nan nan nan nan nan nan nan nan nan nan nan nan nan nan nan nan nan nan nan nan nan nan nan 0.0 2.3 2.5 2.5 2.5 2.5 3.2 4.0 3.2 3.0 3.2 3.4 3.4
2.6 nan nan nan nan nan nan nan nan nan nan nan nan nan nan nan nan nan nan nan nan nan nan nan nan nan nan nan nan nan nan nan 2.5 2.5 2.5 2.5 3.2 2.6 2.7 3.3 3.0 3.9 4.1
nan 2.5 2.5 2.5 2.5 2.5 2.5 2.5 2.5 2.5 2.5 2.5 1.7 nan 5.0 nan nan nan nan 2.5 2.5 nan nan nan 2.5 nan 2.5 1.3 nan nan nan nan nan 0.0 2.7 2.6 3.0 3.1 3.2 3.4 3.2 3.0 3.3
2.0 2.3 2.3 2.5 2.5 2.5 2.5 2.6 2.6 2.5 3.0 2.5 2.6 2.3 2.5 2.5 nan nan nan nan nan nan nan 1.7 2.9 2.5 2.1 2.8 2.9 2.8 2.6 2.5 2.7 2.5 2.3 2.4 2.5 2.5 3.0 3.1 3.2 3.7 4.1
3.0 2.6 2.9 3.0 3.6 2.9 2.9 2.7 3.0 2.6 2.6 2.4 2.9 2.4 2.7 2.8 nan nan nan nan 2.1 2.8 2.5 5.0 3.3 2.7 nan nan 2.7 2.5 2.6 2.5 nan nan nan nan nan nan nan 2.6 3.3 3.7 4.7
4.2 4.1 3.7 3.0 3.3 3.6 3.7 3.9 3.5 3.3 3.2 2.6 2.7 2.6 2.3 2.5 nan nan nan 2.5 2.5 2.5 2.6 2.4 3.0 2.5 nan nan 2.6 2.6 3.3 3.4 2.8 2.5 2.6 2.5 nan nan nan 2.8 3.0 3.6 4.8
4.3 4.2 3.9 3.5 3.2 3.0 3.0 3.2 3.1 3.0 3.2 3.1 3.4 3.1 2.7 2.4 2.5 nan nan 2.5 2.5 2.6 2.6 2.8 2.5 nan nan nan nan 2.5 3.1 3.0 2.8 3.0 3.3 3.1 3.2 3.4 3.3 3.1 3.3 3.3 4.8
5.7 5.5 4.9 3.8 3.4 3.2 2.9 3.4 3.2 3.1 3.4 3.6 3.4 3.5 3.3 3.5 nan nan nan nan nan 2.5 2.9 2.9 2.6 nan nan nan 2.6 nan nan 3.0 3.1 3.4 4.3 4.6 4.9 5.3 5.1 5.1 4.8 4.5 5.2
6.0 5.3 4.6 4.6 3.8 3.4 2.9 3.7 3.4 3.2 3.3 4.0 3.8 3.8 3.9 4.0 3.1 nan nan nan nan 2.7 2.7 3.0 nan nan nan nan nan nan 3.0 3.8 4.0 5.3 5.7 5.9 5.8 6.2 6.6 6.9 6.8 6.6 6.4
5.2 6.4 6.0 5.2 4.7 4.4 3.4 3.1 3.0 3.4 3.6 3.8 4.0 4.2 4.2 4.6 3.9 3.4 2.8 2.5 2.9 2.7 nan 2.7 nan 3.1 nan nan 3.5 4.1 5.0 5.0 5.7 6.1 6.6 6.9 6.3 6.5 7.0 6.6 7.0 7.1 7.0
6.9 9.1 6.4 4.9 4.5 5.5 5.6 3.7 4.0 4.0 3.3 3.5 3.5 3.6 4.3 4.6 4.3 3.4 3.3 3.3 3.0 3.0 3.2 3.7 4.8 5.6 6.2 6.2 6.0 6.2 6.3 6.4 6.7 6.2 6.9 7.4 7.5 7.3 7.7 7.3 7.4 7.4 7.1
7.9 7.0 5.5 5.6 5.4 5.5 5.6 5.5 nan nan nan nan nan 3.7 3.8 nan nan nan nan nan nan nan 4.7 6.0 7.0 7.2 7.5 7.6 7.7 7.8 7.7 6.9 7.3 7.3 7.3 7.4 7.6 7.9 8.1 7.9 7.7 7.9 8.3
6.9 7.4 6.8 6.7 6.7 7.0 7.3 6.0 6.6 5.5 nan nan nan nan nan nan nan nan nan nan nan nan 5.2 6.4 7.2 7.6 7.8 8.0 8.0 8.0 8.3 8.2 8.5 7.9 8.0 8.0 7.9 7.9 7.8 8.1 8.2 8.4 8.0
8.4 3.0 6.7 6.9 6.7 7.4 7.4 7.2 7.1 6.8 6.9 7.0 nan nan nan nan nan nan nan nan 5.7 nan 5.4 6.2 6.8 6.7 7.2 8.0 8.4 8.7 8.8 8.6 8.7 8.5 8.4 7.9 7.6 7.5 7.7 7.7 8.1 7.9 8.0
8.1 7.3 7.6 7.1 7.3 7.3 7.3 7.5 7.6 7.8 7.6 7.3 7.4 7.0 4.6 nan nan nan nan 5.4 6.4 6.9 7.0 7.0 7.2 7.7 8.2 8.1 8.2 7.9 8.4 8.5 8.5 7.8 7.8 7.5 7.6 7.4 7.5 8.1 8.6 6.2 6.4
8.3 3.7 6.2 7.4 7.8 7.9 8.1 8.2 8.4 8.4 8.3 7.9 7.8 7.7 6.9 6.1 6.3 6.2 6.6 6.0 6.4 7.0 7.2 7.2 6.9 6.9 7.1 7.3 7.4 7.6 7.7 7.7 8.0 7.8 7.8 7.8 7.9 7.6 8.7 7.7 8.1 8.7 8.3
7.5 7.9 3.0 8.2 7.7 7.7 7.8 8.5 8.8 8.3 8.5 8.0 8.0 7.4 nan 7.6 7.5 7.4 7.0 7.3 7.3 7.0 7.1 7.1 7.4 6.3 6.6 6.4 6.9 7.0 7.4 8.6 8.0 7.7 7.5 7.5 7.6 7.1 8.1 9.4 8.2 7.9 8.0
7.4 7.4 8.4 8.5 8.7 8.4 8.3 8.5 8.5 8.8 9.2 9.6 9.2 8.4 nan 9.4 8.5 8.4 8.1 7.1 6.7 6.7 6.4 6.2 6.4 6.5 6.8 7.0 7.4 7.5 8.2 7.6 7.3 7.6 8.4 8.2 7.6 7.9 7.8 8.8 8.6 9.0 8.0
8.4 9.0 9.0 9.3 9.2 4.6 9.4 8.8 9.3 9.1 8.9 8.7 8.7 9.3 9.3 8.7 9.5 9.8 7.8 7.2 7.7 7.9 7.3 7.1 7.3 7.7 7.8 7.9 8.2 8.2 8.2 7.9 7.7 6.9 8.1 7.9 8.1 7.5 7.7 8.0 8.2 8.0 8.0
9.7 9.5 9.6 9.0 9.5 10.0 9.4 9.3 9.8 4.2 9.4 9.2 7.6 8.3 9.6 9.2 7.7 9.3 9.2 7.7 8.2 6.8 7.5 7.5 8.0 8.1 7.9 7.0 6.4 6.4 6.2 6.1 6.3 6.5 6.8 8.2 8.2 7.7 8.6 7.9 8.4 8.2 9.0
9.6 10.1 9.9 10.1 8.6 9.4 9.6 9.1 10.2 9.1 8.7 9.3 8.4 9.2 9.1 9.3 9.1 7.5 7.6 8.6 8.6 8.7 9.1 9.1 8.5 8.2 8.2 8.3 7.5 6.6 6.2 3.0 6.0 3.0 7.3 8.4 7.9 7.8 8.1 8.4 8.4 9.0 9.1
10.4 10.2 10.0 9.9 10.0 9.6 9.3 9.4 9.3 10.1 9.2 8.9 9.1 8.7 9.0 9.2 8.6 8.0 8.8 8.9 9.6 9.4 9.1 8.8 8.7 9.0 9.1 8.8 8.6 3.8 3.0 3.0 6.8 3.0 7.9 8.6 8.3 8.7 8.9 8.8 9.1 9.1 9.4